User: anonymous   Login
Location: Caltech
(34.1382°N, 118.1253°W)
Time: 13:08:05
(UTC-07:00)
Language:

Gbstr 26 Del rocket - Orbit

View from above orbital plane
View from above orbital plane
View from above satellite
View from above satellite

Ground track
Ground track

The orbit data is extracted from the following two-line orbital elements,

1 25876U 99041E   16148.14931673  .00000063  00000-0  51492-4 0  9999
2 25876  51.7670  39.6294 0533120 343.2312  15.1566 14.03817935860381
Epoch (UTC): 27 May 2016 03:35:00
Eccentricity: 0.0533120
inclination: 51.7670°
perigee height: 493 km
apogee height: 1267 km
right ascension of ascending node: 39.6294°
argument of perigee: 343.2312°
revolutions per day: 14.03817935
mean anomaly at epoch: 15.1566°
orbit number at epoch: 86038

The dashed part of the orbit path shows where the satellite is in the earth's shadow,  

DLR